Погода в Бобруйске

Погода в Бобруйске : погода сейчас, прогноз погоды и архив. Всё, что Вы хотите узнать о погоде в Бобруйске!

Хотите узнать прогноз погоды в Бобруйске? Тогда Вам сюда: Погода в Бобруйске

Поиск расширенной информации на нашем сайте:

Другие новости

Новости СМИ2

Главная страница сайта

Новости сайта

03.07.2017

Напоминаем, что на нашем специализированном сайте Метеоцентр.Азия вы можете получить высокодетализированные автоматические прогнозы погоды по пунктам России, СНГ и мира в авиационном формате (включающие направление и скорость ветра, видимость, явления погоды, количество и форму облачности, нижнюю и верхнюю границу облачности).

Рекомендуем: для вашего бизнеса покупка офиса в бц Ринко Плаза Тимура Фрунзе ул., 24

Погода в Бобруйске - сегодня

Время (UTC), дата Ветер
(°,м/с) 
Видим.   Явления Облачность Т
(°С)
Тd
(°С)
f(%) Тe
(°С)
Pmin
(гПа)
dP
(гПа)
Po
(мм)
O2
(г/м3)
Тmin Tmax R s Состояние
почвы
06 12.12.17 120 (ЮВ) 10 км    9/9 1350 м 
[Sc]
+0.7 -0.1 94 1004.6  -0.5  739  297  -1.9      равномерный
мокрый или
старый снег
100% 
09 12.12.17 150 (ЮВ) 10 км    9/3 300 м средняя 
[Sc|Ac trans]
+1.6 +0.7 94 +1  1004.3  -0.3  739  296           
12 12.12.17 150 (ЮВ) 10 км    9/0 средняя 
[Ac trans]
+3 +1.7 91 +4  1004  -0.2  739  294           
15 12.12.17 160 (Ю) 10 км    9/0 средняя 
[Ac und]
+3.5 +2.5 93 +3  1005  739  294           
18 12.12.17 180 (Ю) 10 км    9/0 средняя 
[Ac und]
+4.1 +2.9 92 +5  1005.7  0.8  740  293    +4.6     
21 12.12.17 230 (ЮЗ) 10 км    9/0 средняя 
[Ac und]
+5.7 +4.2 90 +5  1007.5  1.8  741  292           
00 13.12.17 230 (ЮЗ) 3{10}  10 км    9/0 средняя 
[Ac trans]
+6 +2.6 79 +5  1008.8  1.3  742  292           
03 13.12.17 260 (З) 6{10}  10 км    9/0 средняя 
[Ac und]
+4.6 +1.1 78 +2  1010.4  1.5  743  294        <0.5   
06 13.12.17 240 (ЮЗ) 4{10}  12000 м    9/0 средняя 
[Ac und]
+3.2 -1.4 72 +1  1012.3  1.7  745  297  +3.1      мокрый или
старый снег
10-40% 
09 13.12.17 250 (З) 15000 м    9/0 средняя 
[Ac und]
+3 -1.9 70 +2  1014.1  1.8  746  298           
12 13.12.17 280 (З) 15000 м    9/0 средняя 
[Ac und]
+3 -1.6 72 +1  1014.3  0.2  746  298           
15 13.12.17 280 (З) 10 км    9/0 средняя 
[Ac trans]
+1 -1.9 81 1014.9  0.5  747  300           
18 13.12.17 тихо ()   10 км    3/0 средняя 
[Ac trans]
-1.8 -2.9 92 -2  1014.9  -0.2  746  303    +3.3       
21 13.12.17 тихо ()   10 км    ясно 
-4.4 -5.5 92 -4  1014.5  -0.6  746  306           
00 14.12.17 тихо ()   6000 м  дымка  ясно 
-5.3 -5.8 96 -5  1013.1  -1.5  745  307           
03 14.12.17 тихо ()   6000 м  дымка  ясно 
-5.5 -6.2 95 -6  1011.3  -1.7  744  306           
06 14.12.17 160 (Ю) 7000 м  дымка  9/9 540 м 
[Sc]
-2 -2.6 96 -1  1008.9  -2.2  742  301  -6.6         
09 14.12.17 170 (Ю) 8000 м  дымка  9/9 660 м 
[Sc]
-0.7 -1.3 96 -2  1006.7  -1.9  740  299           
12 14.12.17 180 (Ю) 9000 м  дымка  9/6 480 м средняя 
[Sc|Ac trans]
+0.8 -0.1 94 1004.2  -2.4  739  297           
15 14.12.17 150 (ЮВ) 10 км    9/0 средняя 
[Ac und]
+0.4 -0.6 93 -1  1003.3  -1  738  297           
18 14.12.17 150 (ЮВ) 8000 м  слаб. снег  9/9 420 м 
[Sc]
+0.7 -0.5 92 1002.4  -0.8  737  296    +0.8  0.0     
21 14.12.17 180 (Ю) 10 км  {снег}  10/10 270 м 
[Sc]
+0.9 -0.1 93 -1  1001.6  -0.7  737  296           
00 15.12.17 190 (Ю) 10 км  {снег}  ясно 
+1.4 +0.5 94 1002.1  0.4  737  295           
03 15.12.17 180 (Ю) 10 км    ясно 
-0.1 -0.9 94 -1  1002.8  0.6  738  297      0.1     
06 15.12.17 190 (Ю) 10 км    3/0 средняя 
[Ac trans]
-0.3 -1.3 93 -1  1005.2  2.2  739  298  -0.4    0.1     
Время (UTC), дата Ветер
(°,м/с) 
Видим.   Явления Облачность Т
(°С)
Тd
(°С)
f(%) Тe
(°С)
Pmin
(гПа)
dP
(гПа)
Po
(мм)
O2
(г/м3)
Тmin Tmax R s Состояние
почвы

Для получения пояснительной информации подведите курсор к названию столбца.

ПОГОДА в Бобруйске - архив

Всё, что Вы хотите узнать о погоде в Бобруйске - удобно и подробно!

Выберите нужную дату (начиная с 1 января 2015* года) и нажмите кнопку "Найти".
Будут отображены архивные сводки погоды по пункту Бобруйск, начиная с указанной даты.


Отображать данные в формате CSV (для использования в таблицах Excel)


Внимание! Наш архив погоды предназначен исключительно для личного некоммерческого использования в познавательных целях. Если Вам необходимы официальные справки о состоянии погоды (для производственных, юридических, коммерческих и т.п. целей), обращайтесь в органы Росгидромета.

*Примечание: данная дата относится к архиву по метеостанциям СССР (Россия, СНГ, Балтия).
Архив по метеостанциям Зарубежной Европы и Азии (кроме Китая) хранится 10 дней, по другим регионам земного шара (Китай, Африка, Америка, Австралия, Океания) - 1 день.

Бобруйск - район местоположения метеостанции


Название, широта, долгота, высота метеостанции:
Бобруйск 53.2°ш. 29.2°д. 156 м над ур. моря [Беларусь]

Дополнительная информация

В oтличие oт бoльшинства пoгoдных сайтoв мы публикуем пoдрoбную метеoинфoрмацию в детальнoм прoфессиoнальнoм фoрмате.

Характеристики температуры и влажнoсти вoздуха измеряются на высoте 2 м в тени вдали oт зданий и деревьев.
Скoрoсть ветра измеряется на высoте 10 м (на урoвне рoста челoвека скoрoсть ветра ниже в 1.5-2 раза). Если метеoстанция нахoдится в гoрoде или в лесу, тo скoрoсть ветра занижена на 2-4 м/с пo сравнению с oткрытым местoм. Скoрoсть ветра над акватoриями крупных рек и oзёр, а также на вершинах хoлмoв на 2-5 м/с выше, чем в oбычных услoвиях.
Атмoсфернoе давление в разных тoчках местнoсти мoжет значительнo oтличаться oт давления на метеoстанции, в зависимoсти oт услoвий рельефа (при пoдъёме на 10 м давление пoнижается примернo на 1 мм рт.ст.).